Location: Nairn
(57.5833°N, 3.8667°W)
Time: 06:49:18
(UTC+00:00)

Tiros 1 - Pass Details

Date: 28 September 2022
Orbit: 629 x 662 km, 48.4° (Epoch: 09 December)

Event Time Altitude Azimuth Distance (km) Brightness Sun altitude
Exits shadow 02:54:24 19° 138° (SE) 1,536 9.0 -25.3°
Drops below altitude 10° 02:56:35 10° 113° (ESE) 2,054 10.0 -25.1°
Sets 02:59:20 0° 98° (E) 2,960 11.1 -24.8°
